"2002/01/01",1008.2,1016.4,1000.1
"2002/01/02", 998.8,1002.1, 994.2
"2002/01/03",1004.8,1007.4,1000.3
"2002/01/04",1006.1,1009.9,1001.9
"2002/01/05",1002.4,1009.1, 998.8
"2002/01/06",1016.7,1023.2,1009.0
"2002/01/07",1020.8,1025.3,1010.9
"2002/01/08",1003.8,1010.9, 999.4
"2002/01/09",1007.5,1012.5,1003.5
"2002/01/10",1010.4,1012.9,1007.3
"2002/01/11",1005.2,1011.3,1001.1
"2002/01/12",1012.6,1015.6,1010.3
"2002/01/13",1018.8,1022.7,1015.4
"2002/01/14",1025.9,1027.9,1022.6
"2002/01/15",1017.3,1025.4,1009.5
"2002/01/16",1005.0,1009.7,1001.0
"2002/01/17",1008.1,1011.6,1004.1
"2002/01/18",1014.2,1018.1,1011.4
"2002/01/19",1022.3,1025.2,1017.8
"2002/01/20",1026.5,1028.7,1023.3
"2002/01/21",1009.3,1023.4, 997.9
"2002/01/22",1003.2,1009.0, 999.0
"2002/01/23",1009.6,1012.7,1007.5
"2002/01/24",1016.5,1019.6,1012.6
"2002/01/25",1023.1,1027.7,1019.5
"2002/01/26",1025.6,1029.6,1015.1
"2002/01/27", 995.8,1015.2, 985.7
"2002/01/28",1005.2,1007.7, 996.5
"2002/01/29",1009.3,1014.0,1005.0
"2002/01/30",1013.8,1016.1,1012.0
"2002/01/31",1018.0,1023.0,1012.9
"2002/02/01",1023.5,1024.8,1021.9
"2002/02/02",1023.8,1025.4,1022.6
"2002/02/03",1022.7,1024.4,1020.7
"2002/02/04",1022.9,1024.5,1021.2
"2002/02/05",1020.0,1023.5,1015.8
"2002/02/06",1015.0,1017.4,1013.4
"2002/02/07",1011.6,1016.5,1006.1
"2002/02/08",1012.0,1016.8,1005.6
"2002/02/09",1005.6,1011.5,1002.1
"2002/02/10",1009.4,1012.4,1007.0
"2002/02/11",1006.4,1007.8,1004.5
"2002/02/12",1012.4,1016.2,1006.5
"2002/02/13",1017.7,1021.1,1015.6
"2002/02/14",1021.0,1022.6,1019.2
"2002/02/15",1021.3,1023.6,1019.5
"2002/02/16",1023.4,1024.9,1021.8
"2002/02/17",1016.2,1021.9,1007.3
"2002/02/18",1005.1,1008.5,1002.0
"2002/02/19",1009.9,1017.1,1006.3
"2002/02/20",1021.0,1023.0,1016.9
"2002/02/21",1023.4,1026.3,1020.5
"2002/02/22",1015.5,1021.1,1012.6
"2002/02/23",1016.1,1018.1,1013.9
"2002/02/24",1020.3,1023.6,1017.7
"2002/02/25",1023.7,1026.3,1021.2
"2002/02/26",1019.0,1021.2,1017.0
"2002/02/27",1019.7,1021.4,1018.2
"2002/02/28",1016.3,1019.4,1013.4
"2002/03/01",1019.2,1022.0,1015.9
"2002/03/02",1017.1,1021.3,1013.3
"2002/03/03",1020.9,1023.1,1016.3
"2002/03/04",1021.9,1024.5,1019.6
"2002/03/05",1017.7,1021.5,1009.7
"2002/03/06", 998.4,1009.8, 993.1
"2002/03/07",1004.9,1014.3, 999.9
"2002/03/08",1020.5,1026.7,1014.2
"2002/03/09",1023.3,1027.1,1018.0
"2002/03/10",1011.8,1018.1,1006.1
"2002/03/11",1011.9,1014.1,1008.9
"2002/03/12",1013.0,1017.7,1009.6
"2002/03/13",1020.9,1022.9,1017.6
"2002/03/14",1016.1,1021.9,1009.5
"2002/03/15", 999.5,1009.7, 991.4
"2002/03/16",1011.4,1017.5,1002.7
"2002/03/17",1012.9,1017.2,1008.8
"2002/03/18",1011.6,1015.4,1006.7
"2002/03/19",1012.8,1017.3,1006.4
"2002/03/20",1014.8,1018.4,1006.8
"2002/03/21",1008.6,1016.8,1002.1
"2002/03/22",1003.8,1006.3,1001.1
"2002/03/23",1003.4,1009.7,1000.2
"2002/03/24",1012.7,1017.4,1009.3
"2002/03/25",1022.4,1024.7,1017.2
"2002/03/26",1019.6,1023.7,1013.4
"2002/03/27",1005.1,1013.6, 996.0
"2002/03/28",1019.3,1022.9,1010.8
"2002/03/29",1016.6,1021.9,1006.0
"2002/03/30",1004.5,1010.7, 998.5
"2002/03/31",1009.2,1011.3,1006.6
"2002/04/01",1013.4,1016.1,1011.0
"2002/04/02",1009.9,1011.5,1008.0
"2002/04/03",1003.5,1010.4, 998.0
"2002/04/04",1005.5,1010.9, 998.8
"2002/04/05",1014.0,1017.9,1010.8
"2002/04/06",1019.2,1020.6,1017.3
"2002/04/07",1013.3,1018.1,1008.9
"2002/04/08",1006.7,1009.0,1004.5
"2002/04/09",1007.2,1012.4,1004.3
"2002/04/10",1016.1,1019.1,1012.2
"2002/04/11",1018.1,1019.9,1015.7
"2002/04/12",1010.6,1015.7,1006.8
"2002/04/13",1013.2,1014.2,1012.5
"2002/04/14","  * ","  * ","  * "
"2002/04/15",1018.0,1019.8,1016.9
"2002/04/16",1015.8,1018.5,1011.3
"2002/04/17",1006.1,1011.5,1000.4
"2002/04/18",1012.4,1018.6,1007.0
"2002/04/19",1023.2,1025.9,1018.5
"2002/04/20",1024.3,1026.6,1022.1
"2002/04/21",1020.3,1023.0,1018.0
"2002/04/22",1020.5,1024.5,1017.1
"2002/04/23",1022.8,1024.7,1020.6
"2002/04/24",1014.6,1020.7,1009.7
"2002/04/25",1013.5,1020.6,1007.6
"2002/04/26",1023.0,1025.6,1019.9
"2002/04/27",1025.6,1026.6,1024.5
"2002/04/28",1024.6,1026.0,1022.8
"2002/04/29",1022.1,1023.7,1019.8
"2002/04/30",1014.3,1020.6,1008.9
"2002/05/01",1012.2,1018.6,1007.4
"2002/05/02",1023.4,1026.3,1018.5
"2002/05/03",1024.6,1026.6,1022.6
"2002/05/04",1019.1,1023.7,1014.1
"2002/05/05",1011.8,1015.5,1008.9
"2002/05/06",1019.5,1022.0,1013.5
"2002/05/07",1018.2,1021.2,1014.0
"2002/05/08",1012.2,1015.3,1010.1
"2002/05/09",1019.5,1022.0,1015.0
"2002/05/10",1019.4,1021.5,1014.3
"2002/05/11",1011.3,1014.4,1008.5
"2002/05/12",1016.5,1019.5,1013.6
"2002/05/13",1019.1,1020.3,1018.2
"2002/05/14",1016.0,1018.4,1013.7
"2002/05/15",1015.0,1016.7,1013.4
"2002/05/16",1017.1,1018.4,1015.5
"2002/05/17",1015.1,1017.2,1012.1
"2002/05/18",1006.0,1012.4,1002.8
"2002/05/19",1002.7,1004.9,1000.0
"2002/05/20",1003.3,1005.5,1001.4
"2002/05/21",1004.5,1005.9,1002.4
"2002/05/22",1007.0,1009.0,1005.2
"2002/05/23",1004.4,1007.7,1001.4
"2002/05/24",1001.4,1003.0, 999.5
"2002/05/25",1003.4,1006.1,1001.9
"2002/05/26",1007.9,1009.7,1005.6
"2002/05/27",1009.7,1011.4,1007.5
"2002/05/28",1012.2,1014.8,1009.5
"2002/05/29",1013.6,1015.2,1011.7
"2002/05/30",1010.7,1013.3,1007.3
"2002/05/31",1004.8,1007.3,1002.4
"2002/06/01",1003.3,1004.4,1001.7
"2002/06/02",1005.2,1008.8,1002.0
"2002/06/03",1010.0,1011.5,1008.4
"2002/06/04",1009.9,1011.7,1008.3
"2002/06/05",1010.6,1014.1,1008.4
"2002/06/06",1014.6,1016.1,1013.0
"2002/06/07",1013.8,1015.4,1011.6
"2002/06/08",1009.5,1013.3,1005.0
"2002/06/09",1004.5,1007.7,1002.7
"2002/06/10",1006.7,1008.9,1004.5
"2002/06/11",1003.7,1005.6,1000.7
"2002/06/12",1006.4,1009.7,1000.7
"2002/06/13",1006.9,1009.3,1004.7
"2002/06/14",1007.8,1009.4,1005.2
"2002/06/15",1008.9,1010.2,1007.5
"2002/06/16",1009.7,1011.2,1008.1
"2002/06/17",1008.9,1010.8,1007.3
"2002/06/18",1003.3,1007.7, 996.8
"2002/06/19",1007.4,1011.2,1003.1
"2002/06/20",1007.9,1010.7,1001.2
"2002/06/21", 999.6,1004.6, 997.6
"2002/06/22",1006.6,1010.8,1003.6
"2002/06/23",1009.7,1011.0,1008.0
"2002/06/24",1008.1,1009.6,1006.8
"2002/06/25",1008.1,1009.3,1006.5
"2002/06/26",1012.2,1015.3,1008.5
"2002/06/27",1015.6,1016.4,1014.5
"2002/06/28",1016.8,1018.7,1015.1
"2002/06/29",1017.1,1019.1,1014.0
"2002/06/30",1012.4,1014.0,1011.5
"2002/07/01",1011.9,1013.8,1010.2
"2002/07/02",1013.0,1014.6,1011.2
"2002/07/03",1014.1,1015.9,1012.6
"2002/07/04",1014.4,1016.0,1013.2
"2002/07/05",1014.0,1015.8,1011.8
"2002/07/06",1009.2,1011.9,1006.7
"2002/07/07",1006.1,1007.2,1004.9
"2002/07/08",1007.6,1009.0,1006.3
"2002/07/09",1006.7,1008.0,1004.8
"2002/07/10", 997.4,1005.5, 981.9
"2002/07/11", 987.9, 996.6, 972.0
"2002/07/12",1001.8,1005.8, 996.5
"2002/07/13",1006.1,1008.2,1004.3
"2002/07/14",1004.3,1007.3,1002.0
"2002/07/15",1002.5,1003.9,1001.2
"2002/07/16", 994.8,1002.0, 983.0
"2002/07/17",1001.6,1005.1, 997.9
"2002/07/18",1008.4,1011.8,1004.7
"2002/07/19",1011.7,1012.7,1010.6
"2002/07/20",1010.7,1012.2,1008.9
"2002/07/21",1009.6,1011.1,1007.7
"2002/07/22",1009.6,1011.6,1008.1
"2002/07/23",1011.4,1013.4,1010.1
"2002/07/24",1012.0,1012.9,1011.0
"2002/07/25",1010.0,1011.5,1008.8
"2002/07/26",1011.5,1013.4,1010.5
"2002/07/27",1012.9,1014.2,1011.4
"2002/07/28",1014.0,1014.8,1013.1
"2002/07/29",1011.7,1013.8,1009.4
"2002/07/30",1009.7,1010.6,1008.6
"2002/07/31",1010.2,1011.9,1008.6
"2002/08/01",1007.5,1011.4,1004.4
"2002/08/02",1005.2,1006.4,1003.7
"2002/08/03",1006.3,1007.7,1005.2
"2002/08/04",1006.9,1008.6,1005.3
"2002/08/05",1008.1,1009.6,1006.5
"2002/08/06",1009.8,1011.3,1008.2
"2002/08/07",1009.7,1011.0,1007.8
"2002/08/08",1008.8,1009.7,1007.0
"2002/08/09",1009.4,1010.4,1007.9
"2002/08/10",1011.4,1012.5,1010.3
"2002/08/11",1013.1,1015.5,1011.2
"2002/08/12",1014.9,1016.0,1013.7
"2002/08/13",1011.7,1013.8,1010.0
"2002/08/14",1010.4,1011.3,1008.6
"2002/08/15",1008.8,1010.9,1006.3
"2002/08/16",1010.0,1011.4,1008.1
"2002/08/17",1009.8,1010.7,1008.4
"2002/08/18",1007.5,1008.9,1005.2
"2002/08/19",1001.0,1005.3, 995.9
"2002/08/20", 998.0,1003.1, 995.1
"2002/08/21",1004.5,1007.5,1002.7
"2002/08/22",1010.4,1013.4,1007.2
"2002/08/23",1013.1,1014.4,1011.5
"2002/08/24",1008.2,1011.5,1005.9
"2002/08/25",1007.9,1011.0,1005.9
"2002/08/26",1012.3,1014.2,1010.3
"2002/08/27",1015.3,1017.0,1013.7
"2002/08/28",1016.2,1017.3,1015.0
"2002/08/29",1015.2,1016.9,1013.1
"2002/08/30",1013.0,1014.5,1011.4
"2002/08/31",1012.8,1014.1,1011.3
"2002/09/01",1013.7,1015.3,1012.6
"2002/09/02",1014.0,1015.4,1012.2
"2002/09/03",1013.7,1015.1,1012.2
"2002/09/04",1014.2,1015.7,1012.8
"2002/09/05",1015.0,1015.8,1014.3
"2002/09/06",1013.2,1014.3,1012.0
"2002/09/07",1012.2,1013.3,1011.1
"2002/09/08",1010.1,1012.1,1008.7
"2002/09/09",1007.5,1009.0,1006.2
"2002/09/10",1012.3,1014.5,1008.9
"2002/09/11",1013.2,1014.8,1011.8
"2002/09/12",1010.5,1012.2,1008.3
"2002/09/13",1011.6,1013.7,1010.2
"2002/09/14",1014.9,1016.1,1012.9
"2002/09/15",1015.9,1017.2,1013.8
"2002/09/16",1015.3,1017.3,1012.2
"2002/09/17",1010.4,1012.4,1007.5
"2002/09/18",1015.1,1020.4,1010.4
"2002/09/19",1022.1,1023.8,1020.1
"2002/09/20",1019.4,1022.0,1016.9
"2002/09/21",1014.0,1017.1,1011.1
"2002/09/22",1006.5,1011.4,1000.8
"2002/09/23",1004.1,1010.8, 999.8
"2002/09/24",1014.3,1017.0,1010.7
"2002/09/25",1019.3,1023.5,1016.9
"2002/09/26",1024.8,1025.9,1023.4
"2002/09/27",1023.1,1025.1,1019.9
"2002/09/28",1012.5,1019.9,1008.6
"2002/09/29",1011.5,1014.6,1009.2
"2002/09/30",1015.7,1017.1,1014.2
"2002/10/01",1001.9,1014.6, 965.0
"2002/10/02",1009.1,1012.8,1006.3
"2002/10/03",1014.6,1016.0,1012.6
"2002/10/04",1014.6,1015.9,1012.9
"2002/10/05",1017.1,1019.5,1014.5
"2002/10/06",1016.6,1019.3,1012.7
"2002/10/07",1009.1,1013.4,1005.8
"2002/10/08",1016.8,1020.1,1013.0
"2002/10/09",1021.4,1023.6,1018.0
"2002/10/10",1022.7,1024.0,1020.8
"2002/10/11",1023.8,1025.6,1022.3
"2002/10/12",1021.0,1023.3,1017.5
"2002/10/13",1012.6,1017.6,1009.3
"2002/10/14",1012.3,1016.3,1009.0
"2002/10/15",1013.0,1016.7,1007.5
"2002/10/16",1010.7,1015.6,1006.3
"2002/10/17",1019.0,1021.0,1015.4
"2002/10/18",1019.0,1021.1,1017.2
"2002/10/19",1015.9,1017.9,1014.2
"2002/10/20",1014.1,1015.9,1011.8
"2002/10/21",1005.3,1012.0, 999.8
"2002/10/22",1008.8,1012.3,1005.8
"2002/10/23",1014.9,1017.7,1011.8
"2002/10/24",1018.8,1020.9,1017.2
"2002/10/25",1022.0,1023.2,1020.7
"2002/10/26",1012.7,1022.0,1002.8
"2002/10/27",1001.7,1004.3, 999.9
"2002/10/28",1005.1,1007.6,1002.8
"2002/10/29",1012.2,1016.6,1007.3
"2002/10/30",1020.0,1024.8,1016.0
"2002/10/31",1024.6,1027.3,1019.7
"2002/11/01",1006.8,1019.8, 997.9
"2002/11/02",1004.5,1006.7, 998.9
"2002/11/03",1005.2,1007.2,1002.4
"2002/11/04",1005.7,1011.6,1002.4
"2002/11/05",1015.4,1020.7,1011.6
"2002/11/06",1024.4,1028.3,1020.4
"2002/11/07",1024.4,1028.2,1016.8
"2002/11/08",1005.7,1016.9, 996.3
"2002/11/09",1000.7,1008.8, 994.2
"2002/11/10",1014.9,1019.9,1008.5
"2002/11/11",1018.2,1021.4,1012.8
"2002/11/12",1007.8,1013.1,1004.3
"2002/11/13",1006.5,1009.0,1003.7
"2002/11/14",1010.3,1012.7,1008.0
"2002/11/15",1010.4,1013.7,1006.7
"2002/11/16",1014.8,1016.7,1013.3
"2002/11/17","  * ","  * ","  * "
"2002/11/18",1013.1,1020.6,1009.2
"2002/11/19",1026.4,1028.8,1020.5
"2002/11/20",1025.8,1028.6,1021.5
"2002/11/21",1018.9,1022.3,1015.3
"2002/11/22",1025.4,1027.8,1021.4
"2002/11/23",1023.4,1026.5,1020.7
"2002/11/24",1017.5,1020.8,1012.8
"2002/11/25",1007.6,1013.2,1003.9
"2002/11/26",1004.0,1008.1,1001.0
"2002/11/27",1007.4,1011.1,1003.7
"2002/11/28",1017.8,1023.8,1011.0
"2002/11/29",1024.3,1026.9,1021.8
"2002/11/30",1017.9,1021.9,1014.9
"2002/12/01",1019.5,1021.6,1017.3
"2002/12/02",1020.3,1025.7,1016.7
"2002/12/03",1027.0,1029.7,1025.3
"2002/12/04",1015.3,1025.4,1005.3
"2002/12/05",1011.5,1014.3,1008.7
"2002/12/06",1019.8,1024.5,1014.2
"2002/12/07",1021.9,1024.6,1019.0
"2002/12/08",1019.2,1021.1,1018.0
"2002/12/09",1013.6,1018.3,1010.3
"2002/12/10",1010.0,1012.6,1008.3
"2002/12/11",1016.9,1020.2,1012.4
"2002/12/12",1019.3,1022.1,1017.1
"2002/12/13",1022.9,1029.2,1017.9
"2002/12/14",1030.2,1031.9,1028.7
"2002/12/15",1027.7,1030.0,1025.5
"2002/12/16",1018.8,1025.8,1006.9
"2002/12/17",1010.9,1023.2, 999.2
"2002/12/18",1020.4,1024.1,1016.8
"2002/12/19",1019.9,1022.6,1017.6
"2002/12/20",1026.9,1030.6,1022.2
"2002/12/21",1025.8,1030.1,1020.4
"2002/12/22",1022.4,1023.8,1019.8
"2002/12/23",1023.6,1025.3,1022.2
"2002/12/24",1019.3,1023.1,1014.0
"2002/12/25",1008.3,1014.3,1000.2
"2002/12/26",1010.7,1013.6,1003.6
"2002/12/27",1013.5,1019.8,1009.8
"2002/12/28",1016.5,1020.4,1009.8
"2002/12/29",1012.7,1018.1,1008.0
"2002/12/30",1017.5,1020.5,1015.2
"2002/12/31",1016.5,1017.8,1014.9
